COSMOS 2251 DEB, 37988

Orbit data source: Space-Track

COSMOS 2251 DEB, 37988 is space debris in LEO originally from a launch on Wed, 16 Jun 1993 UTC launched from the Plesetsk Missile And Space Complex (PKMTR). The debris from Iridium 33, an American commercial communications satellite, has been tracked extensively since its accidental collision with the defunct Russian satellite Cosmos 2251 in 2009. This event, occurring at high speed in low Earth orbit (LEO), generated thousands of pieces of space debris, significantly increasing the risk of further collisions. The Iridium 33 debris cloud has impacted space traffic management and orbital debris mitigation strategies, making it a subject of ongoing study in space situational awareness.

Loading next visibility...
Identifier
37988, 1993-036BQP
Orbit
LEO
Country
Flag of CISCIS
Related business
Manufacturer
Unknown
Mission
Spacecraft
Bus & Motor
Unknown
Mass
Unknown
Launch date (UTC)
1993-06-16 (33 years ago)
Launch vehicle
Unknown
Launch site
Plesetsk Missile And Space Complex (PKMTR)
Object type
Payload
Rocket body
Debris
Shape & HBR
Unknown shape, 0.1 m
Radar Cross Section
Small (<0.1 m²)

Expand to show TLE details & history
Last TLE update: 1 day ago

TLE from 1 day ago
0 COSMOS 2251 DEB
1 37988U 93036BQP 26120.95078507  .00004665  00000-0  74908-3 0  9990
2 37988  74.0589 114.5705 0060548 118.8879 241.8386 14.70688364254413
Epoch: 2026-04-30T22:49Z
TLE epoch observation values (Epoch: 2026-04-30T22:49:07.830Z)
Latitude
-0.00002°
Longitude
-86.60217°
Altitude
681.838 km
Speed
7.505 km/s
True Right ascension
07h 38m 16s
True Declination
0° 00' 00"
Sunlit
Object was in daylight at epoch
Visualization orbit readout
Latitude
Unknown
Longitude
Unknown
Altitude
Unknown
Speed
Unknown
Apparent Right ascension
Unknown
Apparent Declination
Unknown
Sunlit
N/A
Visualization observer readout
Local Sidereal Time
07:14:55
Azimuth
Unknown
Elevation
Unknown
Doppler factor
Unknown
Orbital elements
Apogee altitude
699.048 km
Perigee altitude
613.862 km
Semi-major axis
7,034.592 km
Eccentricity
0.00605
Inclination
74.0589°
RAAN
114.5705°
Arg. of periapsis
118.8879°
True anomaly
241.22909°
Mean anomaly
241.8386°
Eccentric anomaly
241.53363°
Mean motion
3.67862 °/min
Orbital period
97.86 mins
BSTAR
0.00074908
Loading maneuver chart data...
Computing Atmospheric mass density...
Loading historical data...
Loading historical data...
Loading historical data...
Loading historical data...
Loading historical data...
Loading historical data...
Loading historical data...

Documentation

Showing up to 5 results
|